Theta_e
298 297 296 296 297 298 298 296 296 294 292 290 289 289 288 288 287 286 287 285 286 285 285 285 287 286 286 286 286 287 287 287 288 289 289 289 289 290
295 294 294 294 294 295 296 296 297 295 291 289 289 289 288 287 286 286 286 285 285 284 283 283 283 284 284 284 284 285 285 285 286 286 287 287 287 287
294 295 297 297 296 297 297 297 296 294 289 288 288 288 288 286 285 285 284 283 283 282 282 282 282 282 282 282 283 283 283 283 284 285 285 284 284 285
298 296 294 293 292 292 293 293 293 294 290 287 287 286 285 284 284 284 283 282 281 280 281 281 279 280 281 280 281 282 282 282 283 283 282 282 283 284
295 293 292 293 291 290 289 289 289 289 288 286 284 283 282 282 282 282 281 280 279 279 280 279 279 279 278 279 279 279 281 281 281 280 280 281 282 281
291 291 291 290 288 287 287 287 286 287 286 285 282 281 280 280 280 280 279 279 279 279 279 278 278 278 277 278 277 279 279 279 279 280 281 281 280 280
289 289 288 287 286 287 286 285 285 285 285 283 281 280 279 278 278 277 277 278 278 278 278 278 277 277 277 277 276 276 277 278 280 281 280 279 279 278
285 284 285 285 285 284 284 283 283 284 283 282 280 279 277 277 277 277 277 277 278 277 277 277 276 276 276 276 275 276 277 279 279 278 278 278 277 277
287 286 284 282 282 281 280 280 280 280 281 281 279 278 277 277 277 277 277 276 276 276 275 275 275 276 275 275 275 276 278 278 277 276 277 276 276 276
284 282 282 281 280 280 280 279 279 279 279 278 278 277 277 277 277 277 276 276 275 275 274 274 274 274 274 275 275 275 278 277 275 275 275 275 275 275
282 282 282 280 279 280 280 280 280 278 278 277 278 277 278 277 276 276 275 274 274 274 273 273 273 273 272 274 274 275 276 274 274 274 274 274 274 274
281 281 281 281 279 279 279 279 278 276 276 276 276 276 276 275 275 274 273 273 273 272 273 272 273 271 271 272 274 273 272 272 272 272 272 272 273 273
281 280 280 278 276 277 279 279 278 277 275 276 275 275 275 274 274 273 272 272 271 272 272 272 271 271 271 271 271 271 271 270 270 271 271 271 272 272
281 280 279 277 275 275 276 276 277 275 276 275 274 274 274 273 273 272 272 271 270 270 270 270 270 270 270 270 270 270 269 269 269 269 270 270 270 270
281 279 278 277 275 274 275 275 275 275 275 274 274 274 273 273 272 271 271 270 270 270 270 269 269 270 269 269 269 268 268 268 268 270 269 269 269 269
279 278 278 275 275 275 275 275 275 275 275 274 274 273 273 272 271 271 270 270 269 269 268 268 268 268 267 267 267 267 267 267 268 268 268 268 267 267
279 278 277 274 275 275 276 276 276 275 275 274 274 273 272 271 271 270 270 269 268 268 267 267 267 266 266 266 266 267 267 267 267 267 266 266 266 266
279 277 276 275 276 276 276 276 276 276 275 274 273 272 272 271 270 270 269 268 267 267 266 266 265 265 265 266 266 266 267 266 266 266 265 265 266 266
279 277 276 275 276 277 277 277 276 275 275 274 273 272 271 271 270 269 268 267 267 266 265 264 264 264 264 263 264 265 265 264 264 264 265 265 264 264
277 276 276 276 277 277 277 276 276 275 274 273 272 271 271 270 269 268 267 266 265 264 263 263 263 263 263 263 262 262 263 263 264 264 263 263 263 263
276 277 277 274 275 278 277 276 275 275 274 273 272 271 270 269 268 267 266 265 264 263 261 261 262 261 261 261 261 261 261 262 263 263 263 263 262 263
277 277 277 274 276 277 276 276 275 274 273 272 271 270 269 268 267 266 265 264 263 262 261 260 260 260 259 259 260 260 260 260 260 260 261 262 262 263
278 277 275 276 276 276 276 275 274 274 273 271 270 269 268 267 265 265 264 262 261 260 260 259 258 258 258 258 259 259 259 259 259 259 259 260 261 263
Wind_Speed
12 10 9 9 10 13 23 28 18 4 3 10 7 16 13 10 8 6 10 7 4 3 4 5 7 8 7 10 10 8 11 10 10 9 8 11 12 12
16 14 15 12 12 12 21 18 9 8 3 12 8 19 16 14 9 9 9 6 4 1 4 4 3 3 7 9 8 8 9 8 7 8 8 10 12 14
15 10 8 6 6 6 10 12 12 15 10 7 19 17 18 16 14 11 7 3 1 2 3 2 4 6 6 9 9 10 9 9 8 7 9 12 16 15
16 14 10 8 11 10 11 16 18 18 15 22 22 20 17 15 12 7 4 3 4 3 2 2 4 3 5 9 9 9 9 9 8 11 15 18 16 14
16 14 14 10 9 13 16 15 15 16 22 19 17 19 15 12 7 4 2 4 5 2 4 5 6 5 9 7 8 8 9 9 13 16 15 12 13 17
14 13 13 15 19 18 16 13 14 16 20 23 19 14 11 7 4 2 1 4 4 6 6 8 11 9 10 7 7 9 12 16 13 9 7 9 15 20
16 15 16 17 15 12 14 12 14 17 21 22 15 9 7 5 3 0 2 6 4 7 7 13 16 10 7 10 15 13 13 9 6 5 10 15 16 18
21 20 18 14 12 11 10 10 10 16 17 15 9 11 8 6 3 1 3 3 1 2 13 20 11 6 12 17 15 13 7 2 5 14 14 16 18 18
17 15 14 13 11 11 12 11 10 10 11 12 16 11 8 5 3 2 1 2 1 9 13 12 6 12 19 21 11 6 4 2 14 17 17 19 20 23
17 18 13 13 12 13 15 14 13 12 12 12 10 9 8 6 3 2 2 5 7 1 6 5 8 17 26 13 5 6 4 13 22 21 21 22 25 24
16 14 11 14 12 12 15 17 14 12 10 10 12 10 10 9 5 1 1 4 3 1 2 8 11 23 22 8 6 3 9 24 25 22 25 28 24 24
17 16 15 13 10 13 14 16 16 12 11 12 9 9 10 6 3 3 2 5 4 3 2 12 9 10 9 7 5 19 25 21 22 29 29 26 21 23
20 17 16 12 11 12 13 14 13 12 11 10 8 8 7 3 3 4 3 4 4 6 9 10 10 13 6 11 15 21 15 31 35 31 30 20 19 23
24 20 17 14 13 12 12 13 11 11 11 9 7 7 4 2 5 3 3 7 6 9 13 11 10 14 15 19 14 19 33 34 28 33 24 25 27 26
22 19 16 13 12 11 10 11 12 11 10 8 6 4 2 4 5 4 7 10 10 10 8 11 12 15 16 16 22 28 26 22 28 15 26 28 28 28
18 17 15 14 12 13 13 11 8 7 7 6 3 1 1 5 5 6 10 11 15 13 16 12 12 13 20 22 23 28 24 16 27 29 28 29 31 29
20 19 17 15 15 15 13 12 11 9 7 5 4 3 4 6 7 8 9 12 13 16 21 22 23 21 23 24 25 25 24 26 26 26 28 33 32 30
20 21 18 17 17 16 15 13 11 10 8 8 6 5 6 7 9 10 11 13 15 17 18 24 28 26 18 14 17 21 20 26 29 26 29 31 39 32
19 18 17 18 17 15 14 13 12 10 8 8 7 8 9 9 10 12 14 15 16 17 21 22 20 15 12 10 18 15 19 24 35 33 27 29 37 47
20 18 18 15 17 16 15 15 13 11 10 9 10 10 10 10 12 14 14 14 16 20 21 21 17 15 15 14 24 35 25 28 28 33 35 37 39 44
18 17 13 11 16 15 15 13 12 11 11 11 11 10 10 12 15 15 14 15 18 21 20 20 23 21 25 25 23 29 28 23 28 34 36 37 39 43
17 16 14 13 15 15 14 13 13 13 12 12 12 12 13 14 14 14 15 18 21 22 26 26 25 22 18 20 26 32 35 34 32 34 31 34 34 15
16 15 15 14 14 15 16 15 13 12 13 13 13 13 13 14 14 15 18 19 20 22 22 25 21 22 21 21 26 31 34 37 36 38 39 31 33 39
Wind_Direction
140 131 131 129 142 184 171 160 145 138 168 179 189 184 169 155 154 146 143 136 139 70 49 35 57 41 26 16 8 12 27 10 9 10 8 351 351 350
148 137 148 125 117 122 158 158 168 122 139 183 195 178 170 162 156 151 140 138 161 358 338 331 354 13 357 356 359 359 6 357 343 348 344 339 336 332
151 162 185 183 192 192 197 198 189 171 143 144 165 168 161 171 155 157 155 168 262 340 340 331 329 330 334 325 335 340 347 321 352 350 336 334 324 330
182 191 190 186 181 181 191 197 199 211 183 152 153 153 155 158 161 168 196 265 289 297 263 272 318 324 325 325 333 322 324 320 342 327 329 330 329 339
183 189 185 199 196 190 187 180 166 170 168 152 147 155 147 160 170 190 255 308 298 217 231 331 325 315 322 321 316 321 303 330 321 317 322 324 330 338
172 176 174 179 184 171 164 164 155 153 163 153 144 149 146 150 183 207 286 334 331 208 213 336 325 308 317 337 304 303 316 316 307 316 319 323 326 325
164 168 174 168 169 170 172 162 156 151 158 151 147 149 148 154 167 248 7 335 320 209 273 312 322 310 313 320 312 312 307 299 304 331 331 325 319 319
151 145 142 151 165 164 161 160 167 168 163 158 149 153 149 142 148 91 5 19 17 270 319 312 311 278 316 316 315 307 297 269 341 334 328 323 317 315
162 157 146 148 162 160 145 141 145 153 173 176 155 150 144 148 169 122 292 306 268 317 319 320 294 272 307 321 303 299 242 319 338 330 321 321 317 315
162 167 164 156 157 156 151 141 135 130 130 134 134 133 134 145 152 130 281 307 324 54 325 293 290 300 322 321 276 268 232 320 317 320 319 319 318 319
164 171 158 162 164 165 160 161 151 136 130 128 124 126 122 123 140 139 58 355 23 93 287 330 311 323 320 294 279 224 287 304 316 315 316 319 322 322
162 161 155 164 171 175 176 169 156 156 156 143 129 127 143 121 81 41 50 58 32 349 133 340 299 335 308 280 244 291 311 321 315 315 317 319 324 322
170 166 165 164 163 183 184 187 186 174 158 153 142 140 145 129 39 37 50 32 2 278 292 318 285 312 288 291 297 296 299 312 317 320 321 321 321 316
185 179 170 168 166 182 180 183 186 172 158 151 144 138 135 64 18 23 4 342 316 283 291 297 281 291 287 292 291 300 308 317 320 318 319 318 312 308
188 180 166 162 167 170 160 151 153 155 153 144 138 126 110 4 359 343 330 330 321 317 304 294 286 291 295 287 287 297 311 310 317 323 313 305 305 302
171 160 161 167 171 167 156 160 157 156 156 157 158 147 329 336 337 324 326 331 329 323 325 322 313 302 296 287 284 287 293 292 299 302 304 300 297 292
173 170 172 177 175 179 182 182 185 195 206 213 218 261 304 313 315 311 314 321 317 316 318 324 324 315 302 288 282 280 289 289 292 298 303 299 294 290
180 180 186 190 193 190 188 193 204 215 218 221 232 272 296 294 293 300 306 313 312 315 316 323 326 326 320 304 277 281 289 292 298 299 300 296 296 296
195 194 200 204 204 203 204 209 216 218 225 232 252 273 278 281 286 298 305 307 309 313 314 316 315 312 310 300 290 288 295 301 302 301 299 295 293 296
205 202 204 211 212 217 216 213 218 224 230 243 258 269 278 282 285 294 300 301 305 310 310 313 308 301 292 292 294 292 290 289 295 298 301 298 291 293
205 207 213 230 220 224 218 219 228 235 243 254 266 273 274 281 290 292 289 294 304 310 306 304 312 308 300 298 289 287 294 293 293 295 300 299 299 300
217 217 228 237 218 219 216 226 231 236 249 264 270 272 275 281 281 285 293 303 309 310 306 308 314 314 297 287 284 292 299 303 299 297 290 284 288 287
226 233 233 228 227 220 229 231 239 254 265 264 261 268 276 280 289 295 302 306 310 309 308 310 309 308 294 283 285 293 297 303 306 307 299 295 290 287